Weather in Khimoy

Russia / Chechen Republic     42°39′19″N   45°51′10″E
temp.,
°C
wind,
m/s
gust,
m/s
humid.,
%
clouds,
%
prec.,
mm/h
press.,
hPa
HPBL,
m
20 april, tue
tue2000:00+9sse347079 0.0 101674
03:00+9s3363100 0.0 101462
06:00+10sse4764100 0.0 1013141
09:00+17s4646100 0.0 1010363
12:00+22ssw4831100 0.0 10081713
15:00+19ssw4644100 0.1 10091192
18:00+13s5862100 0.1 1010280
21:00+12s456165 0.1 1011100
21 april, wed
wed2100:00+11sse3567100 0.1 1013107
03:00+9s1277100 0.1 1013103
06:00+8nne018886 0.1 1015202
09:00+8n218379 0.1 1017277
12:00+11n427162 0.1 1015549
15:00+6nne2293100 3.3 1017265
18:00+6nnw3399100 11.1 1020356
21:00+5ene129596 17.7 102059
22 april, thu
thu2200:00+6ne119889 0.5 1020142
03:00+5n119991 0.7 1019106
06:00+6n119985 0.0 1019136
09:00+6n229581 0.1 1020261
12:00+6n3398100 0.1 1021321
15:00+5n3398100 0.3 1021327
18:00+4n1199100 0.3 1022231
21:00+5nne1199100 0.6 1020107
23 april, fri
fri2300:00+4n2299100 0.1 1019179
03:00+3wnw1199100 3.3 1020150
06:00+2nnw2399100 5.6 1022334
09:00+3nnw1297100 6.6 1023308
12:00+4n2397100 1.5 1022443
15:00+3nnw1197100 2.3 1023377
18:00+5ssw119031 0.0 102286
21:00+2s228960 0.0 102426
24 april, sat
sat2400:00+1sse328121 0.0 102228
03:00+2sse3271100 0.0 102135
06:00+3s2275100 0.0 102038
09:00+9n2158100 0.0 1017402
12:00+12n325317 0.0 1017892
15:00+12n435880 0.0 10171079
18:00+8n227919 0.0 1019263
21:00+5sse119241 0.0 102112